SCP
0 0 0 0 0 0 0 0 0 0 0 0 0 0 0 0 -0 0 -0 -0 -0 -2 -1 -0 -1 -1 -1 -1 -1 -1 -1 -1 -1 -0 -0 -0 -0 -0 -0 -0 -0 -0 -0 -0 -0 -0 -0 -0 0
0 0 0 0 0 0 0 0 0 0 0 0 0 0 0 -0 0 0 -0 -0 -0 -1 -2 -0 -1 -1 -1 -1 -1 -1 -1 -0 -0 -0 -0 -0 -0 -0 -0 -0 -0 -0 -0 -0 -0 -0 0 0 0
0 0 0 0 0 0 0 0 0 0 0 0 0 0 0 -0 0 0 0 -0 -0 -1 -0 -1 -1 -1 -1 -1 -1 -0 -0 -0 -0 -0 -0 -0 -0 -0 -0 -0 -0 -0 -0 -0 0 0 0 0 0
0 0 0 0 0 0 0 0 0 0 0 -0 0 0 0 -0 0 -0 -0 -1 -1 -1 0 -1 -1 -1 -1 -1 -1 -1 -0 -0 -0 -0 -0 -0 -0 -0 -0 -0 -0 -0 -0 0 0 0 0 0 0
0 0 0 0 0 0 0 0 0 0 0 -0 0 0 -0 0 -0 0 0 -0 -1 -0 0 -1 -1 -1 -1 -1 -1 -1 -0 -0 -0 -0 -0 -0 -0 -0 -0 -0 0 0 0 0 0 0 0 0 0
0 0 0 0 0 0 0 0 -0 -0 -0 -0 0 0 0 -0 0 0 -0 -0 -0 0 1 0 -0 -0 -0 -0 -1 -1 -0 -0 -0 -0 -0 -0 -0 -0 0 0 0 0 0 0 0 0 -0 0 0
0 0 0 0 0 0 0 0 0 0 -0 0 0 0 0 0 0 1 1 0 1 1 1 1 0 0 -0 -0 -0 -0 -0 -0 -0 -0 -0 -0 -0 0 0 0 0 0 0 0 0 0 0 0 0
0 0 0 0 0 -0 0 0 0 0 0 0 0 0 0 1 1 1 1 1 1 2 2 2 1 0 0 0 -0 -0 -0 -0 -0 0 0 0 0 0 0 0 0 0 0 0 0 0 0 0 0
0 0 0 0 0 0 0 0 0 0 0 0 0 0 0 2 3 2 2 2 1 2 2 2 1 1 0 0 0 0 0 0 0 0 0 0 0 0 0 0 0 0 0 0 0 0 0 0 0
0 0 0 0 0 0 0 -0 0 0 0 0 0 0 0 3 3 3 2 1 1 1 1 1 1 1 0 0 0 0 0 0 0 0 0 0 0 0 0 0 0 0 0 0 0 0 0 0 0
0 0 0 0 0 0 0 -0 -0 0 0 0 0 0 0 3 4 3 3 1 1 1 1 1 1 1 0 0 0 0 0 0 0 0 0 0 0 0 0 0 0 0 0 0 0 0 0 0 0
0 0 0 0 0 0 0 -0 0 0 0 0 0 0 2 3 3 4 3 1 1 1 1 1 1 1 1 1 0 0 0 0 0 0 0 0 0 0 0 0 0 0 0 0 0 0 0 -0 0
0 0 0 0 0 0 0 0 0 0 0 0 -0 0 2 3 2 2 2 2 2 1 1 1 1 1 1 1 1 0 0 0 0 0 0 0 0 0 0 -0 -0 0 0 0 0 0 0 0 0
0 0 0 0 0 0 0 0 0 -0 -0 0 -0 0 0 1 2 2 3 3 2 1 1 1 1 1 1 0 0 0 0 0 0 0 0 0 0 0 0 -0 -0 0 0 0 0 0 0 0 0
0 0 0 0 0 0 0 0 -0 -0 0 0 0 0 0 1 2 3 3 2 2 1 1 0 0 1 1 0 0 0 0 0 0 0 0 0 0 0 0 0 0 0 0 0 0 0 0 0 0
0 0 0 0 0 0 0 -0 -0 -0 -0 -0 0 0 0 0 0 1 2 2 1 1 1 1 0 0 0 0 0 0 0 0 0 0 0 0 0 0 0 0 0 0 0 0 0 0 0 0 0
0 0 0 0 0 0 0 0 -0 0 0 0 0 0 0 0 0 0 2 3 1 1 1 1 0 0 0 0 0 0 0 0 0 0 0 0 0 0 0 0 0 0 0 0 0 0 0 0 0
0 0 0 0 0 0 0 0 0 0 0 0 0 0 0 0 1 2 3 2 2 1 0 0 0 0 0 0 0 0 0 0 0 0 0 0 0 0 0 0 0 0 0 0 0 0 0 0 0
0 0 0 0 0 0 0 0 0 -0 0 0 0 0 0 0 0 1 3 2 1 1 0 0 0 0 0 1 1 0 1 1 0 0 0 0 0 1 0 0 0 0 0 0 0 0 0 0 0
0 0 0 0 0 0 0 0 0 0 0 0 0 0 0 0 0 1 1 1 1 0 0 0 0 0 0 0 1 2 1 2 1 1 1 1 1 1 1 1 0 1 0 0 0 0 0 0 0
0 0 0 0 0 0 0 0 0 0 0 0 0 0 0 0 0 1 1 0 0 0 0 0 0 0 0 0 1 1 1 1 1 2 2 2 1 1 1 1 0 0 0 0 0 0 0 0 0
0 0 0 0 0 0 0 0 0 0 0 0 0 0 0 0 0 0 0 0 0 -0 -0 -0 0 0 0 0 1 1 1 1 1 1 1 1 1 2 1 0 0 0 0 0 0 0 0 0 0
0 0 0 0 0 0 0 0 0 0 0 0 0 0 0 0 0 0 0 0 -0 0 -0 -0 -0 -0 0 0 0 0 0 1 1 1 1 1 0 0 0 0 0 0 0 0 0 0 0 0 0
0 0 0 0 0 0 0 0 0 0 0 0 0 0 0 0 0 0 0 0 0 0 0 0 -0 0 0 0 0 0 1 1 0 0 0 0 0 0 0 0 0 0 0 0 0 0 0 0 0
0 0 0 0 0 0 0 0 0 0 0 0 0 0 0 0 0 0 1 1 0 0 0 0 0 0 1 0 0 0 0 0 0 0 0 0 0 0 0 0 0 0 0 0 0 0 0 0 0
0 0 0 0 0 0 0 0 0 0 0 0 0 0 0 0 0 0 2 3 1 1 0 0 1 1 1 0 0 0 0 0 0 0 0 0 0 0 0 0 0 0 0 0 0 0 0 0 0
0 0 0 0 0 0 0 0 0 0 0 0 0 0 0 0 0 0 2 2 2 1 1 1 1 1 0 0 0 0 0 0 0 0 0 0 0 0 0 0 0 0 0 0 0 0 0 0 0
-0 0 0 0 0 0 0 0 0 0 0 0 0 0 0 0 0 1 3 2 1 2 2 1 0 0 0 0 0 0 0 0 0 0 0 0 0 0 0 0 0 0 0 0 0 0 0 0 0
-0 0 0 0 0 0 0 0 0 0 0 0 0 0 0 0 1 4 3 3 3 2 1 0 0 0 0 0 0 0 0 0 0 0 0 0 0 0 0 0 0 0 0 0 0 0 0 0 0
-0 0 0 0 0 0 0 0 0 0 0 0 0 0 0 1 4 4 4 3 2 0 0 0 0 0 0 0 0 0 0 0 0 0 0 0 0 0 0 0 0 0 0 0 0 0 0 0 0
Wind_Speed_500mb
24 21 12 11 3 7 9 17 5 8 5 12 16 18 31 23 18 11 20 45 55 45 62 64 58 55 52 48 44 38 33 27 25 21 23 24 27 31 33 35 34 31 26 22 21 21 18 15 14
17 17 15 7 8 6 14 12 28 19 12 28 29 11 13 16 26 5 39 55 54 55 62 67 62 58 52 48 45 39 34 27 24 20 22 25 29 32 33 33 32 28 24 21 20 19 15 12 12
13 24 13 9 9 25 24 21 8 12 18 7 18 6 7 11 35 11 44 56 56 53 64 66 64 60 53 48 45 41 36 31 27 24 24 28 31 32 31 30 28 25 23 20 17 16 15 14 14
11 15 5 7 21 27 36 12 11 4 8 11 21 12 17 27 10 24 59 46 57 53 65 65 62 59 54 50 47 43 39 34 29 25 25 29 32 32 30 28 26 23 22 21 18 16 16 17 19
21 8 5 8 19 16 17 33 19 7 12 12 13 15 22 25 37 42 73 46 57 62 73 67 63 60 55 51 48 44 40 36 30 25 25 30 34 32 30 27 26 25 22 21 20 18 18 21 22
16 6 3 26 23 32 33 26 6 8 26 6 9 26 16 30 29 43 67 50 56 65 75 67 63 59 54 51 48 46 42 37 30 26 25 28 31 30 27 24 22 21 19 18 17 16 18 21 25
12 8 12 9 14 27 19 34 18 8 19 32 20 7 15 40 35 48 58 59 65 68 71 67 64 59 53 51 49 46 41 36 30 25 25 28 31 28 23 19 18 16 15 13 13 14 16 19 24
16 8 9 15 23 33 14 19 22 21 21 49 33 14 21 50 41 48 55 68 76 78 73 70 66 61 58 54 49 44 39 34 30 26 26 27 29 27 22 18 14 12 11 10 8 7 8 11 16
26 7 22 26 20 22 2 5 8 10 27 28 20 32 48 44 63 55 64 74 84 83 77 72 70 64 60 54 50 45 39 35 32 29 28 29 29 29 24 18 14 12 10 7 5 3 1 3 6
13 15 23 10 16 16 15 0 9 8 20 42 45 35 53 62 71 71 76 80 86 86 81 75 73 69 63 58 54 49 44 40 35 32 30 28 28 26 21 16 12 10 8 6 5 2 3 5 8
15 26 28 13 31 34 20 12 23 7 23 38 31 46 34 75 81 84 84 84 90 87 83 79 75 70 64 61 57 52 47 42 37 33 31 29 29 27 25 20 14 10 11 7 9 6 3 7 10
11 23 43 3 54 39 9 22 15 29 45 50 43 50 42 81 89 85 84 82 85 88 84 79 74 69 65 59 58 53 49 42 36 33 31 29 29 29 26 20 19 19 13 12 13 8 2 2 8
14 11 14 44 52 52 46 26 25 47 49 54 57 42 33 75 94 91 89 83 76 85 83 80 73 67 64 60 55 51 43 37 32 29 28 27 28 24 22 25 24 17 12 9 5 3 7 9 13
6 19 36 48 39 27 33 41 48 23 44 49 38 40 34 72 99 95 93 82 75 76 75 79 76 73 66 61 57 50 42 36 32 30 28 28 28 26 22 23 22 15 12 7 4 7 12 16 20
31 16 22 23 9 16 20 37 65 52 59 63 58 49 31 76 61 59 92 87 80 75 76 77 79 77 72 66 58 49 41 37 36 33 33 32 31 29 25 19 13 10 10 8 10 14 22 29 30
11 9 23 19 20 15 34 60 25 37 32 47 47 50 25 76 74 71 70 82 80 79 80 76 73 76 71 63 55 51 51 49 45 41 42 38 36 30 27 24 15 13 18 20 25 29 29 30 32
10 10 16 13 14 14 34 37 28 39 29 38 42 45 20 45 71 81 79 85 80 80 78 74 73 73 72 63 55 51 54 44 36 33 38 35 35 31 28 24 21 25 22 24 32 30 29 31 35
24 8 7 7 7 28 30 33 17 21 44 47 46 44 33 26 47 88 92 97 90 88 78 72 72 71 72 65 61 53 46 40 38 38 40 38 36 31 32 28 30 30 32 35 33 37 41 40 47
24 20 15 9 16 11 36 38 31 14 21 27 50 53 32 23 39 68 86 94 90 81 82 79 74 72 76 70 55 60 60 52 46 45 37 41 42 40 40 37 36 34 35 37 36 39 43 49 53
30 22 26 24 23 13 19 28 19 20 19 37 47 56 56 32 44 62 78 78 76 81 84 80 71 72 73 62 58 70 66 49 47 47 48 45 43 42 35 43 43 36 33 35 33 33 37 42 41
26 34 29 29 26 30 13 16 16 16 23 37 62 69 52 46 54 68 76 82 83 86 79 69 69 65 62 66 67 65 47 44 52 59 50 50 44 41 46 47 36 30 28 26 31 30 30 26 30
26 18 27 26 17 12 10 10 15 20 28 26 35 51 69 59 50 69 79 90 90 75 65 65 63 64 67 63 69 63 60 69 75 59 59 52 44 39 42 40 31 24 21 20 20 20 20 23 19
27 17 16 21 14 7 22 3 13 12 23 27 35 53 64 66 62 60 75 76 67 67 60 58 62 62 72 64 68 61 61 62 64 57 47 42 37 45 40 35 25 18 14 17 16 18 16 19 25
12 7 8 18 10 12 24 14 9 10 29 37 26 34 51 63 56 53 60 66 71 66 67 65 68 65 70 64 48 61 55 65 52 53 48 41 18 27 37 28 18 15 15 15 15 15 18 22 26
10 22 8 12 12 9 18 14 24 14 14 20 27 25 47 62 54 57 56 71 73 64 60 67 75 79 66 55 38 44 27 54 48 29 14 18 16 51 31 24 11 11 13 16 18 16 20 25 31
16 18 9 12 13 15 18 16 17 46 33 23 17 47 44 54 58 62 56 64 66 61 58 65 68 76 62 36 34 33 33 43 47 33 9 27 46 34 24 14 8 15 18 17 16 20 25 29 34
11 19 18 4 4 6 8 14 11 19 16 13 19 33 65 67 69 65 63 65 65 61 67 71 71 52 45 36 37 35 32 29 10 33 28 39 32 16 8 8 12 14 14 14 19 24 29 32 36
10 17 14 4 11 10 11 37 16 7 18 15 10 20 52 70 76 71 67 66 68 71 79 73 67 54 42 41 33 30 31 30 41 47 41 27 14 12 13 13 9 7 12 21 26 29 33 37 42
10 11 6 9 6 9 20 12 2 5 5 12 9 23 52 64 68 65 66 65 70 76 79 68 54 50 46 37 27 28 29 48 53 41 34 22 17 14 10 3 6 14 17 22 28 33 37 40 41
21 12 10 9 10 7 4 9 10 12 13 5 13 29 48 67 66 71 73 76 76 73 65 61 56 49 38 40 40 37 30 36 30 24 15 11 11 7 2 3 9 13 20 26 33 38 38 36 35
Wind_Direction_500mb
236 229 219 184 76 70 236 241 263 251 317 152 317 172 193 179 171 209 211 212 188 179 182 180 179 179 178 177 176 174 170 164 157 157 161 163 162 158 154 154 153 152 151 151 148 144 137 137 141
212 202 185 164 141 188 245 191 238 211 223 310 328 208 181 229 244 246 195 192 177 173 176 179 178 180 180 178 179 178 172 165 157 154 158 162 161 158 157 157 158 157 158 153 146 151 149 147 147
179 179 169 156 190 219 239 197 230 216 245 270 314 241 180 236 212 217 194 182 172 174 176 177 179 179 181 180 180 178 174 168 164 158 159 160 160 159 159 160 162 165 168 169 164 157 159 163 161
175 179 224 168 220 241 232 91 113 15 54 159 336 316 288 274 262 216 187 192 173 178 180 180 178 180 180 181 183 182 178 172 169 163 161 161 163 160 159 161 167 172 177 179 179 174 170 174 170
186 176 210 239 246 259 250 249 282 298 296 160 3 284 279 270 224 198 195 188 184 181 181 180 178 180 180 182 183 183 180 176 173 169 166 166 166 164 165 167 168 169 171 171 177 182 182 179 178
177 154 155 230 231 243 255 229 188 208 265 159 265 252 263 238 235 215 197 193 191 183 179 177 176 179 182 183 185 184 183 181 178 174 174 170 170 170 170 168 169 168 170 173 180 189 190 185 186
164 131 218 241 251 246 260 235 225 224 268 260 243 297 278 261 252 201 188 184 181 181 179 178 176 178 182 185 187 185 183 182 183 181 179 175 176 176 173 171 170 170 171 174 178 186 188 191 193
204 143 209 212 227 259 216 238 242 225 253 271 248 233 239 240 229 199 187 182 179 180 181 179 177 180 184 185 185 185 184 184 187 186 184 181 180 181 181 176 170 167 173 175 177 185 195 203 210
195 201 230 225 202 235 100 127 172 247 237 270 265 251 261 243 218 195 188 184 179 180 181 180 180 182 184 183 182 183 185 189 190 191 189 188 186 187 187 178 168 167 166 164 157 154 189 226 233
182 216 226 202 196 248 247 178 321 299 304 295 298 291 310 225 209 199 188 185 182 183 183 183 183 183 183 183 183 184 186 191 194 195 195 191 190 193 192 184 173 163 155 165 171 166 236 251 252
207 233 228 236 235 250 264 261 265 251 273 256 276 312 286 201 205 200 191 191 188 187 185 185 186 185 185 185 185 186 190 193 195 197 197 195 192 194 195 193 182 168 126 159 190 183 153 243 251
253 230 238 196 243 262 250 271 247 238 250 274 278 309 217 194 194 194 189 191 191 189 188 188 190 188 188 189 190 191 192 194 196 198 197 198 196 197 199 191 172 154 132 102 130 152 180 263 238
242 244 259 239 247 264 275 268 259 258 263 263 279 293 230 195 195 196 198 194 192 190 191 192 190 193 192 193 194 195 193 194 198 201 200 201 202 200 195 183 177 176 180 164 174 240 274 280 285
255 224 254 265 261 247 258 273 263 267 268 265 273 277 250 203 195 196 197 195 194 192 191 192 191 196 197 196 195 195 194 197 201 204 206 204 202 200 194 190 190 190 183 189 239 260 269 288 290
262 278 275 245 222 232 244 267 248 257 266 274 278 282 262 206 200 193 198 198 196 195 191 189 193 195 196 197 195 195 198 204 208 210 212 209 207 200 200 194 187 195 210 237 272 292 290 293 288
298 188 246 249 192 221 178 255 257 245 238 251 264 271 253 200 201 201 208 205 200 200 195 189 194 195 196 197 199 203 204 205 210 212 217 217 211 204 205 203 193 220 244 257 264 268 273 276 282
245 240 227 290 204 191 195 252 250 244 228 244 250 258 241 193 206 206 203 211 210 209 195 194 194 196 197 195 200 201 200 203 203 207 206 200 186 185 204 216 221 237 257 269 276 286 277 279 282
224 220 267 202 297 199 235 246 271 284 211 223 249 248 240 186 193 205 212 211 209 209 204 200 196 198 196 195 197 206 209 212 192 197 198 200 205 197 206 208 222 231 251 265 277 280 281 284 292
263 273 287 322 252 245 229 251 245 230 223 225 231 233 227 199 175 184 201 209 210 205 200 203 199 200 195 194 218 221 214 210 204 207 211 210 223 216 213 212 226 230 249 265 274 278 283 293 296
254 256 268 288 288 265 270 251 240 211 217 221 229 236 230 201 174 172 181 185 190 197 198 201 202 201 206 219 230 230 219 212 209 218 225 224 224 234 231 226 238 238 256 275 284 286 286 292 298
242 249 242 253 287 291 292 280 236 239 216 218 230 232 225 209 184 177 180 179 182 187 190 195 199 202 206 215 226 221 213 212 210 218 223 229 240 229 227 234 240 253 266 278 285 290 295 297 302
229 244 241 234 232 243 165 284 223 222 236 220 233 226 228 225 194 187 181 182 182 181 185 190 198 202 211 216 217 218 232 213 212 215 221 220 234 225 239 241 241 242 257 274 286 296 297 299 301
224 210 254 261 259 335 272 307 267 193 223 226 221 218 223 227 216 197 191 186 184 185 189 194 196 201 213 213 220 222 220 226 218 218 222 239 225 231 239 229 235 245 269 279 299 289 287 290 295
147 167 259 232 261 241 235 188 264 205 208 224 225 208 207 216 213 215 202 196 190 191 195 198 197 203 207 214 223 228 243 228 223 246 242 242 176 225 234 230 232 269 286 302 296 301 302 299 299
126 157 198 183 216 227 200 205 243 241 226 215 216 194 201 211 212 212 199 191 190 193 197 200 200 208 209 207 218 223 251 231 216 252 242 353 336 210 224 242 239 263 285 289 294 297 299 304 306
174 180 168 178 173 212 194 211 238 235 252 263 259 203 211 217 215 213 211 199 195 194 196 196 200 206 207 212 223 225 222 220 229 253 188 187 195 194 199 220 254 268 278 281 290 301 310 309 308
182 191 189 134 236 117 187 256 303 235 254 224 219 205 202 210 203 199 201 198 196 196 187 190 194 196 201 198 208 207 209 202 176 196 204 199 204 196 235 227 244 250 265 287 311 315 314 309 306
175 157 176 213 176 182 182 220 216 191 206 241 252 202 203 205 201 194 190 193 190 184 182 183 186 183 187 192 184 207 208 184 183 197 189 180 180 199 199 202 199 233 302 310 308 307 311 313 311
173 180 163 130 242 191 176 231 259 183 302 263 286 215 197 191 178 176 174 176 173 173 180 179 172 172 169 170 177 134 134 137 139 142 140 152 160 170 168 190 305 302 297 309 316 320 317 316 317
235 174 160 137 213 239 185 255 289 262 243 252 263 210 177 171 154 154 149 153 156 160 157 157 163 158 151 148 142 145 154 164 171 167 160 172 181 162 164 280 292 313 318 321 324 325 326 330 335
Wind_Speed_850mb
24 21 12 11 3 7 9 17 5 8 5 12 16 18 31 23 18 11 20 45 55 45 62 64 58 55 52 48 44 38 33 27 25 21 23 24 27 31 33 35 34 31 26 22 21 21 18 15 14
17 17 15 7 8 6 14 12 28 19 12 28 29 11 13 16 26 5 39 55 54 55 62 67 62 58 52 48 45 39 34 27 24 20 22 25 29 32 33 33 32 28 24 21 20 19 15 12 12
13 24 13 9 9 25 24 21 8 12 18 7 18 6 7 11 35 11 44 56 56 53 64 66 64 60 53 48 45 41 36 31 27 24 24 28 31 32 31 30 28 25 23 20 17 16 15 14 14
11 15 5 7 21 27 36 12 11 4 8 11 21 12 17 27 10 24 59 46 57 53 65 65 62 59 54 50 47 43 39 34 29 25 25 29 32 32 30 28 26 23 22 21 18 16 16 17 19
21 8 5 8 19 16 17 33 19 7 12 12 13 15 22 25 37 42 73 46 57 62 73 67 63 60 55 51 48 44 40 36 30 25 25 30 34 32 30 27 26 25 22 21 20 18 18 21 22
16 6 3 26 23 32 33 26 6 8 26 6 9 26 16 30 29 43 67 50 56 65 75 67 63 59 54 51 48 46 42 37 30 26 25 28 31 30 27 24 22 21 19 18 17 16 18 21 25
12 8 12 9 14 27 19 34 18 8 19 32 20 7 15 40 35 48 58 59 65 68 71 67 64 59 53 51 49 46 41 36 30 25 25 28 31 28 23 19 18 16 15 13 13 14 16 19 24
16 8 9 15 23 33 14 19 22 21 21 49 33 14 21 50 41 48 55 68 76 78 73 70 66 61 58 54 49 44 39 34 30 26 26 27 29 27 22 18 14 12 11 10 8 7 8 11 16
26 7 22 26 20 22 2 5 8 10 27 28 20 32 48 44 63 55 64 74 84 83 77 72 70 64 60 54 50 45 39 35 32 29 28 29 29 29 24 18 14 12 10 7 5 3 1 3 6
13 15 23 10 16 16 15 0 9 8 20 42 45 35 53 62 71 71 76 80 86 86 81 75 73 69 63 58 54 49 44 40 35 32 30 28 28 26 21 16 12 10 8 6 5 2 3 5 8
15 26 28 13 31 34 20 12 23 7 23 38 31 46 34 75 81 84 84 84 90 87 83 79 75 70 64 61 57 52 47 42 37 33 31 29 29 27 25 20 14 10 11 7 9 6 3 7 10
11 23 43 3 54 39 9 22 15 29 45 50 43 50 42 81 89 85 84 82 85 88 84 79 74 69 65 59 58 53 49 42 36 33 31 29 29 29 26 20 19 19 13 12 13 8 2 2 8
14 11 14 44 52 52 46 26 25 47 49 54 57 42 33 75 94 91 89 83 76 85 83 80 73 67 64 60 55 51 43 37 32 29 28 27 28 24 22 25 24 17 12 9 5 3 7 9 13
6 19 36 48 39 27 33 41 48 23 44 49 38 40 34 72 99 95 93 82 75 76 75 79 76 73 66 61 57 50 42 36 32 30 28 28 28 26 22 23 22 15 12 7 4 7 12 16 20
31 16 22 23 9 16 20 37 65 52 59 63 58 49 31 76 61 59 92 87 80 75 76 77 79 77 72 66 58 49 41 37 36 33 33 32 31 29 25 19 13 10 10 8 10 14 22 29 30
11 9 23 19 20 15 34 60 25 37 32 47 47 50 25 76 74 71 70 82 80 79 80 76 73 76 71 63 55 51 51 49 45 41 42 38 36 30 27 24 15 13 18 20 25 29 29 30 32
10 10 16 13 14 14 34 37 28 39 29 38 42 45 20 45 71 81 79 85 80 80 78 74 73 73 72 63 55 51 54 44 36 33 38 35 35 31 28 24 21 25 22 24 32 30 29 31 35
24 8 7 7 7 28 30 33 17 21 44 47 46 44 33 26 47 88 92 97 90 88 78 72 72 71 72 65 61 53 46 40 38 38 40 38 36 31 32 28 30 30 32 35 33 37 41 40 47
24 20 15 9 16 11 36 38 31 14 21 27 50 53 32 23 39 68 86 94 90 81 82 79 74 72 76 70 55 60 60 52 46 45 37 41 42 40 40 37 36 34 35 37 36 39 43 49 53
30 22 26 24 23 13 19 28 19 20 19 37 47 56 56 32 44 62 78 78 76 81 84 80 71 72 73 62 58 70 66 49 47 47 48 45 43 42 35 43 43 36 33 35 33 33 37 42 41
26 34 29 29 26 30 13 16 16 16 23 37 62 69 52 46 54 68 76 82 83 86 79 69 69 65 62 66 67 65 47 44 52 59 50 50 44 41 46 47 36 30 28 26 31 30 30 26 30
26 18 27 26 17 12 10 10 15 20 28 26 35 51 69 59 50 69 79 90 90 75 65 65 63 64 67 63 69 63 60 69 75 59 59 52 44 39 42 40 31 24 21 20 20 20 20 23 19
27 17 16 21 14 7 22 3 13 12 23 27 35 53 64 66 62 60 75 76 67 67 60 58 62 62 72 64 68 61 61 62 64 57 47 42 37 45 40 35 25 18 14 17 16 18 16 19 25
12 7 8 18 10 12 24 14 9 10 29 37 26 34 51 63 56 53 60 66 71 66 67 65 68 65 70 64 48 61 55 65 52 53 48 41 18 27 37 28 18 15 15 15 15 15 18 22 26
10 22 8 12 12 9 18 14 24 14 14 20 27 25 47 62 54 57 56 71 73 64 60 67 75 79 66 55 38 44 27 54 48 29 14 18 16 51 31 24 11 11 13 16 18 16 20 25 31
16 18 9 12 13 15 18 16 17 46 33 23 17 47 44 54 58 62 56 64 66 61 58 65 68 76 62 36 34 33 33 43 47 33 9 27 46 34 24 14 8 15 18 17 16 20 25 29 34
11 19 18 4 4 6 8 14 11 19 16 13 19 33 65 67 69 65 63 65 65 61 67 71 71 52 45 36 37 35 32 29 10 33 28 39 32 16 8 8 12 14 14 14 19 24 29 32 36
10 17 14 4 11 10 11 37 16 7 18 15 10 20 52 70 76 71 67 66 68 71 79 73 67 54 42 41 33 30 31 30 41 47 41 27 14 12 13 13 9 7 12 21 26 29 33 37 42
10 11 6 9 6 9 20 12 2 5 5 12 9 23 52 64 68 65 66 65 70 76 79 68 54 50 46 37 27 28 29 48 53 41 34 22 17 14 10 3 6 14 17 22 28 33 37 40 41
21 12 10 9 10 7 4 9 10 12 13 5 13 29 48 67 66 71 73 76 76 73 65 61 56 49 38 40 40 37 30 36 30 24 15 11 11 7 2 3 9 13 20 26 33 38 38 36 35
Wind_Direction_850mb
236 229 219 184 76 70 236 241 263 251 317 152 317 172 193 179 171 209 211 212 188 179 182 180 179 179 178 177 176 174 170 164 157 157 161 163 162 158 154 154 153 152 151 151 148 144 137 137 141
212 202 185 164 141 188 245 191 238 211 223 310 328 208 181 229 244 246 195 192 177 173 176 179 178 180 180 178 179 178 172 165 157 154 158 162 161 158 157 157 158 157 158 153 146 151 149 147 147
179 179 169 156 190 219 239 197 230 216 245 270 314 241 180 236 212 217 194 182 172 174 176 177 179 179 181 180 180 178 174 168 164 158 159 160 160 159 159 160 162 165 168 169 164 157 159 163 161
175 179 224 168 220 241 232 91 113 15 54 159 336 316 288 274 262 216 187 192 173 178 180 180 178 180 180 181 183 182 178 172 169 163 161 161 163 160 159 161 167 172 177 179 179 174 170 174 170
186 176 210 239 246 259 250 249 282 298 296 160 3 284 279 270 224 198 195 188 184 181 181 180 178 180 180 182 183 183 180 176 173 169 166 166 166 164 165 167 168 169 171 171 177 182 182 179 178
177 154 155 230 231 243 255 229 188 208 265 159 265 252 263 238 235 215 197 193 191 183 179 177 176 179 182 183 185 184 183 181 178 174 174 170 170 170 170 168 169 168 170 173 180 189 190 185 186
164 131 218 241 251 246 260 235 225 224 268 260 243 297 278 261 252 201 188 184 181 181 179 178 176 178 182 185 187 185 183 182 183 181 179 175 176 176 173 171 170 170 171 174 178 186 188 191 193
204 143 209 212 227 259 216 238 242 225 253 271 248 233 239 240 229 199 187 182 179 180 181 179 177 180 184 185 185 185 184 184 187 186 184 181 180 181 181 176 170 167 173 175 177 185 195 203 210
195 201 230 225 202 235 100 127 172 247 237 270 265 251 261 243 218 195 188 184 179 180 181 180 180 182 184 183 182 183 185 189 190 191 189 188 186 187 187 178 168 167 166 164 157 154 189 226 233
182 216 226 202 196 248 247 178 321 299 304 295 298 291 310 225 209 199 188 185 182 183 183 183 183 183 183 183 183 184 186 191 194 195 195 191 190 193 192 184 173 163 155 165 171 166 236 251 252
207 233 228 236 235 250 264 261 265 251 273 256 276 312 286 201 205 200 191 191 188 187 185 185 186 185 185 185 185 186 190 193 195 197 197 195 192 194 195 193 182 168 126 159 190 183 153 243 251
253 230 238 196 243 262 250 271 247 238 250 274 278 309 217 194 194 194 189 191 191 189 188 188 190 188 188 189 190 191 192 194 196 198 197 198 196 197 199 191 172 154 132 102 130 152 180 263 238
242 244 259 239 247 264 275 268 259 258 263 263 279 293 230 195 195 196 198 194 192 190 191 192 190 193 192 193 194 195 193 194 198 201 200 201 202 200 195 183 177 176 180 164 174 240 274 280 285
255 224 254 265 261 247 258 273 263 267 268 265 273 277 250 203 195 196 197 195 194 192 191 192 191 196 197 196 195 195 194 197 201 204 206 204 202 200 194 190 190 190 183 189 239 260 269 288 290
262 278 275 245 222 232 244 267 248 257 266 274 278 282 262 206 200 193 198 198 196 195 191 189 193 195 196 197 195 195 198 204 208 210 212 209 207 200 200 194 187 195 210 237 272 292 290 293 288
298 188 246 249 192 221 178 255 257 245 238 251 264 271 253 200 201 201 208 205 200 200 195 189 194 195 196 197 199 203 204 205 210 212 217 217 211 204 205 203 193 220 244 257 264 268 273 276 282
245 240 227 290 204 191 195 252 250 244 228 244 250 258 241 193 206 206 203 211 210 209 195 194 194 196 197 195 200 201 200 203 203 207 206 200 186 185 204 216 221 237 257 269 276 286 277 279 282
224 220 267 202 297 199 235 246 271 284 211 223 249 248 240 186 193 205 212 211 209 209 204 200 196 198 196 195 197 206 209 212 192 197 198 200 205 197 206 208 222 231 251 265 277 280 281 284 292
263 273 287 322 252 245 229 251 245 230 223 225 231 233 227 199 175 184 201 209 210 205 200 203 199 200 195 194 218 221 214 210 204 207 211 210 223 216 213 212 226 230 249 265 274 278 283 293 296
254 256 268 288 288 265 270 251 240 211 217 221 229 236 230 201 174 172 181 185 190 197 198 201 202 201 206 219 230 230 219 212 209 218 225 224 224 234 231 226 238 238 256 275 284 286 286 292 298
242 249 242 253 287 291 292 280 236 239 216 218 230 232 225 209 184 177 180 179 182 187 190 195 199 202 206 215 226 221 213 212 210 218 223 229 240 229 227 234 240 253 266 278 285 290 295 297 302
229 244 241 234 232 243 165 284 223 222 236 220 233 226 228 225 194 187 181 182 182 181 185 190 198 202 211 216 217 218 232 213 212 215 221 220 234 225 239 241 241 242 257 274 286 296 297 299 301
224 210 254 261 259 335 272 307 267 193 223 226 221 218 223 227 216 197 191 186 184 185 189 194 196 201 213 213 220 222 220 226 218 218 222 239 225 231 239 229 235 245 269 279 299 289 287 290 295
147 167 259 232 261 241 235 188 264 205 208 224 225 208 207 216 213 215 202 196 190 191 195 198 197 203 207 214 223 228 243 228 223 246 242 242 176 225 234 230 232 269 286 302 296 301 302 299 299
126 157 198 183 216 227 200 205 243 241 226 215 216 194 201 211 212 212 199 191 190 193 197 200 200 208 209 207 218 223 251 231 216 252 242 353 336 210 224 242 239 263 285 289 294 297 299 304 306
174 180 168 178 173 212 194 211 238 235 252 263 259 203 211 217 215 213 211 199 195 194 196 196 200 206 207 212 223 225 222 220 229 253 188 187 195 194 199 220 254 268 278 281 290 301 310 309 308
182 191 189 134 236 117 187 256 303 235 254 224 219 205 202 210 203 199 201 198 196 196 187 190 194 196 201 198 208 207 209 202 176 196 204 199 204 196 235 227 244 250 265 287 311 315 314 309 306
175 157 176 213 176 182 182 220 216 191 206 241 252 202 203 205 201 194 190 193 190 184 182 183 186 183 187 192 184 207 208 184 183 197 189 180 180 199 199 202 199 233 302 310 308 307 311 313 311
173 180 163 130 242 191 176 231 259 183 302 263 286 215 197 191 178 176 174 176 173 173 180 179 172 172 169 170 177 134 134 137 139 142 140 152 160 170 168 190 305 302 297 309 316 320 317 316 317
235 174 160 137 213 239 185 255 289 262 243 252 263 210 177 171 154 154 149 153 156 160 157 157 163 158 151 148 142 145 154 164 171 167 160 172 181 162 164 280 292 313 318 321 324 325 326 330 335